Weather History for Boulder City, NV

Change the Weather History Date:

Sunday, April 6, 2014

  Actual Average (KLAS) Record (KLAS)
Temperature  
Mean Temperature 65 °F 64 °F  
Max Temperature 75 °F 75 °F 95 °F (1989)
Min Temperature 55 °F 53 °F 35 °F (1945)
Degree Days  
Heating Degree Days 0 3  
Month to date heating degree days 21  
Since 1 July heating degree days 1901  
Cooling Degree Days 0 3  
Month to date cooling degree days 13  
Year to date cooling degree days 44  
Growing Degree Days 15 (Base 50)    
Moisture  
Dew Point 22 °F    
Average Humidity 19    
Maximum Humidity 33    
Minimum Humidity 12    
Precipitation  
Precipitation 0.00 in 0.01 in 0.10 in (1986)
Month to date precipitation 0.05  
Year to date precipitation 1.79  
Snow  
Snow 0.00 in 0.00 in 0.00 in (2013)
Month to date snowfall 0.0  
Since 1 July snowfall 0.3  
Snow Depth -    
Sea Level Pressure  
Sea Level Pressure 30.07 in    
Wind  
Wind Speed 10 mph (North)    
Max Wind Speed 17 mph    
Max Gust Speed 24 mph    
Visibility 10 miles    
Events Thunderstorm    
T = Trace of Precipitation, MM = Missing Value Source: NWS Daily Summary

Daily Weather History Graph

Daily Weather History Graph

Search for Another Location

Airport:

Trip Planner

Search our weather history database for the weather conditions in past years. The results will help you decide how hot, cold, wet, or windy it might be!

Date:

Astronomy

Apr. 06, 2014 Rise Set
Actual Time 6:18 AM PDT 7:05 PM PDT
Civil Twilight 5:52 AM PDT 7:31 PM PDT
Nautical Twilight 5:21 AM PDT 8:02 PM PDT
Astronomical Twilight 4:50 AM PDT 8:33 PM PDT
Moon 11:29 AM PDT (4/6) 12:58 AM PDT (4/6)
Length of Visible Light 13h 38m
Length of Day
12h 46m
Waxing Crescent, 45% of the Moon is Illuminated
Apr 6
Waxing Crescent
Apr 7
First Quarter
Apr 15
Full
Apr 22
Last Quarter
Apr 28
New

Hourly Weather History & Observations

Time (PDT) Temp. Dew Point Humidity Pressure Visibility Wind Dir Wind Speed Gust Speed Precip Events Conditions
12:15 AM 59.0 °F 26.6 °F 29% 30.02 in 10.0 mi NNE 9.2 mph - N/A Thunderstorm Clear
12:35 AM 57.2 °F 28.4 °F 33% 30.03 in 10.0 mi North 8.1 mph - N/A   Clear
12:55 AM 57.2 °F 26.6 °F 31% 30.04 in 10.0 mi North 9.2 mph - N/A   Clear
1:15 AM 59.0 °F 26.6 °F 29% 30.04 in 10.0 mi North 8.1 mph - N/A   Clear
1:35 AM 60.8 °F 24.8 °F 25% 30.04 in 10.0 mi North 8.1 mph - N/A   Clear
1:55 AM 59.0 °F 23.0 °F 25% 30.04 in 10.0 mi NNW 8.1 mph - N/A   Clear
2:15 AM 59.0 °F 23.0 °F 25% 30.04 in 10.0 mi NNW 10.4 mph - N/A   Clear
2:35 AM 59.0 °F 23.0 °F 25% 30.05 in 10.0 mi NNW 11.5 mph - N/A   Clear
2:55 AM 59.0 °F 23.0 °F 25% 30.05 in 10.0 mi NNW 11.5 mph 18.4 mph N/A   Clear
3:15 AM 57.2 °F 23.0 °F 27% 30.06 in 10.0 mi NNW 8.1 mph - N/A   Clear
3:35 AM 55.4 °F 23.0 °F 29% 30.06 in 10.0 mi NNW 8.1 mph - N/A   Clear
3:55 AM 55.4 °F 23.0 °F 29% 30.06 in 10.0 mi North 9.2 mph - N/A   Clear
4:15 AM 55.4 °F 23.0 °F 29% 30.06 in 10.0 mi North 5.8 mph - N/A   Clear
4:35 AM 55.4 °F 23.0 °F 29% 30.07 in 10.0 mi NNW 3.5 mph - N/A   Clear
4:55 AM 57.2 °F 23.0 °F 27% 30.07 in 10.0 mi North 9.2 mph - N/A   Clear
5:15 AM 59.0 °F 21.2 °F 23% 30.07 in 10.0 mi North 15.0 mph - N/A   Clear
5:35 AM 59.0 °F 21.2 °F 23% 30.08 in 10.0 mi NNW 16.1 mph - N/A   Clear
5:55 AM 57.2 °F 21.2 °F 25% 30.08 in 10.0 mi NNW 15.0 mph 20.7 mph N/A   Clear
6:15 AM 57.2 °F 23.0 °F 27% 30.09 in 10.0 mi NNW 16.1 mph - N/A   Clear
6:35 AM 57.2 °F 23.0 °F 27% 30.09 in 10.0 mi North 12.7 mph 19.6 mph N/A   Clear
6:55 AM 57.2 °F 23.0 °F 27% 30.10 in 10.0 mi North 11.5 mph - N/A   Clear
7:15 AM 59.0 °F 23.0 °F 25% 30.11 in 10.0 mi North 17.3 mph - N/A   Clear
7:35 AM 59.0 °F 23.0 °F 25% 30.12 in 10.0 mi North 10.4 mph - N/A   Clear
7:55 AM 60.8 °F 21.2 °F 22% 30.13 in 10.0 mi North 11.5 mph - N/A   Clear
8:15 AM 60.8 °F 23.0 °F 23% 30.14 in 10.0 mi NNW 10.4 mph - N/A Thunderstorm Clear
8:35 AM 60.8 °F 23.0 °F 23% 30.14 in 10.0 mi NW 12.7 mph - N/A   Clear
8:55 AM 62.6 °F 23.0 °F 22% 30.14 in 10.0 mi NW 10.4 mph 16.1 mph N/A   Clear
9:15 AM 62.6 °F 23.0 °F 22% 30.15 in 10.0 mi NW 10.4 mph 16.1 mph N/A   Clear
9:35 AM 64.4 °F 23.0 °F 21% 30.15 in 10.0 mi NNW 12.7 mph - N/A Thunderstorm Clear
9:55 AM 66.2 °F 23.0 °F 19% 30.15 in 10.0 mi North 15.0 mph - N/A   Clear
10:15 AM 66.2 °F 23.0 °F 19% 30.14 in 10.0 mi North 15.0 mph - N/A   Clear
10:35 AM 66.2 °F 23.0 °F 19% 30.14 in 10.0 mi North 8.1 mph 18.4 mph N/A   Clear
10:55 AM 68.0 °F 19.4 °F 16% 30.13 in 10.0 mi North 15.0 mph 23.0 mph N/A   Clear
11:15 AM 68.0 °F 21.2 °F 17% 30.13 in 10.0 mi NNE 15.0 mph 21.9 mph N/A   Clear
11:35 AM 69.8 °F 21.2 °F 16% 30.12 in 10.0 mi NNE 15.0 mph 21.9 mph N/A   Clear
11:55 AM 69.8 °F 21.2 °F 16% 30.11 in 10.0 mi North 15.0 mph 21.9 mph N/A   Clear
12:15 PM 71.6 °F 19.4 °F 14% 30.11 in 10.0 mi NNE 13.8 mph 21.9 mph N/A   Clear
12:35 PM 71.6 °F 21.2 °F 15% 30.10 in 10.0 mi NNE 11.5 mph 18.4 mph N/A   Clear
12:55 PM 71.6 °F 19.4 °F 14% 30.09 in 10.0 mi North 12.7 mph 19.6 mph N/A   Clear
1:15 PM 71.6 °F 19.4 °F 14% 30.09 in 10.0 mi North 16.1 mph 24.2 mph N/A   Clear
1:35 PM 73.4 °F 19.4 °F 13% 30.08 in 10.0 mi NE 11.5 mph 19.6 mph N/A   Clear
1:55 PM 73.4 °F 19.4 °F 13% 30.08 in 10.0 mi NNE 13.8 mph - N/A   Clear
2:15 PM 73.4 °F 21.2 °F 14% 30.07 in 10.0 mi NE 15.0 mph 21.9 mph N/A   Clear
2:35 PM 75.2 °F 21.2 °F 13% 30.07 in 10.0 mi NE 15.0 mph - N/A   Clear
2:55 PM 73.4 °F 21.2 °F 14% 30.06 in 10.0 mi ENE 15.0 mph 21.9 mph N/A   Clear
3:15 PM 75.2 °F 21.2 °F 13% 30.06 in 10.0 mi North 11.5 mph 21.9 mph N/A   Clear
3:35 PM 75.2 °F 21.2 °F 13% 30.05 in 10.0 mi WNW 12.7 mph - N/A   Clear
3:55 PM 75.2 °F 21.2 °F 13% 30.05 in 10.0 mi ENE 9.2 mph - N/A   Clear
4:15 PM 75.2 °F 21.2 °F 13% 30.04 in 10.0 mi Variable 5.8 mph 15.0 mph N/A   Clear
4:35 PM 75.2 °F 21.2 °F 13% 30.03 in 10.0 mi Variable 6.9 mph - N/A   Clear
4:55 PM 75.2 °F 21.2 °F 13% 30.02 in 10.0 mi Variable 6.9 mph - N/A   Clear
5:15 PM 75.2 °F 19.4 °F 12% 30.02 in 10.0 mi NW 12.7 mph - N/A   Clear
5:35 PM 75.2 °F 19.4 °F 12% 30.03 in 10.0 mi WNW 11.5 mph 19.6 mph N/A   Clear
5:55 PM 75.2 °F 19.4 °F 12% 30.03 in 10.0 mi NW 8.1 mph - N/A   Clear
6:15 PM 75.2 °F 19.4 °F 12% 30.02 in 10.0 mi NW 11.5 mph - N/A   Clear
6:35 PM 75.2 °F 19.4 °F 12% 30.02 in 10.0 mi NW 6.9 mph - N/A   Clear
6:55 PM 73.4 °F 19.4 °F 13% 30.02 in 10.0 mi West 4.6 mph - N/A   Clear
7:15 PM 71.6 °F 19.4 °F 14% 30.02 in 10.0 mi NW 3.5 mph - N/A   Clear
7:35 PM 68.0 °F 21.2 °F 17% 30.03 in 10.0 mi NNW 5.8 mph - N/A   Clear
7:55 PM 66.2 °F 23.0 °F 19% 30.03 in 10.0 mi North 5.8 mph - N/A   Clear
8:15 PM 66.2 °F 23.0 °F 19% 30.03 in 10.0 mi North 6.9 mph - N/A   Clear
8:35 PM 66.2 °F 21.2 °F 18% 30.04 in 10.0 mi NNW 6.9 mph - N/A   Clear
8:55 PM 66.2 °F 23.0 °F 19% 30.05 in 10.0 mi North 6.9 mph - N/A   Clear
9:15 PM 68.0 °F 21.2 °F 17% 30.06 in 10.0 mi North 8.1 mph - N/A Thunderstorm Clear
9:35 PM 66.2 °F 26.6 °F 23% 30.06 in 10.0 mi NNE 5.8 mph - N/A   Clear
9:55 PM 71.6 °F 21.2 °F 15% 30.07 in - North 12.7 mph - N/A   Clear
10:15 PM 71.6 °F 19.4 °F 14% 30.07 in 10.0 mi North 12.7 mph - N/A   Clear
10:35 PM 71.6 °F 19.4 °F 14% 30.07 in 10.0 mi North 12.7 mph - N/A   Clear
10:55 PM 71.6 °F 21.2 °F 15% 30.08 in 10.0 mi NNE 8.1 mph 17.3 mph N/A   Clear
11:15 PM 69.8 °F 23.0 °F 17% 30.09 in 10.0 mi NNE 5.8 mph - N/A Thunderstorm Clear
11:35 PM 68.0 °F 21.2 °F 17% 30.09 in 10.0 mi NNE 5.8 mph - N/A   Clear
11:55 PM 69.8 °F 21.2 °F 16% 30.09 in 10.0 mi NNE 12.7 mph - N/A   Clear